Вернуться в каталог

STARLINK-1771

АктивенСвязьVLEO
NORAD 46384·PAYLOAD·🇺🇸 United States

Запущен Sep 3, 2020 с Cape Canaveral Space Force Station

Loading…

Ближайшие Пролёты (ближайшие 24 часа)

TLE

СвежийSource: CelesTrak SupGP

Эпоха: Sep 14, 2026, 20:34 UTC

1 46384C 20062BN  26257.85743056  .00030677  00000+0  21386-3 0  2577
2 46384  53.0325 142.6570 0004212 115.4193  25.5802 15.73627900    16

Отслеживайте STARLINK-1771 в реальном времени с AllMySat

Download on the App Store